STARLINK-34828, 65353

Orbit data source: Space-Track

STARLINK-34828, 65353 is a payload satellite owned by SpaceX/Seattle (US) in LEO that was launched on Thu, 28 Aug 2025 UTC via an FALCON 9 launch vehicle from the Air Force Eastern Test Range (AFETR). Payload-class satellites include a variety of spacecraft equipped with specific instruments for various scientific and technological missions. These include communications satellites like Starlink; space stations such as the ISS; scientific satellites like the Hubble; Earth observation satellites from companies like Planet Labs, Umbra, and HawkEye 360; GPS; miniature CubeSats for education and research; and military/defense satellites.

Loading next visibility...
Identifier
65353, 2025-190C
Orbit
LEO
Country
Flag of USUS
Related business
Manufacturer
SpaceX/Seattle
Mission
Operational Commercial Communications
Bus & Motor
STARLINK V2MO, Unknown motor
Mass
575 kg wet, ~530 kg dry
Launch date (UTC)
2025-08-28 (10 months ago)
Launch vehicle
FALCON 9
Launch site
Air Force Eastern Test Range (AFETR)
Object type
Payload
Rocket body
Debris
Shape & HBR
Box + 2 Pan, 17.7 m
Radar Cross Section
36.964 m², Large (>1 m²)

Expand to show TLE details & history
Last TLE update: 11 hours ago

TLE from 11 hours ago
0 STARLINK-34828
1 65353U 25190C   26171.39426852  .00021547  00000-0  73695-3 0  9997
2 65353  53.1615  50.8470 0001887  78.2479 281.8733 15.30224326 45481
Epoch: 2026-06-20T09:27Z
TLE epoch observation values (Epoch: 2026-06-20T09:27:44.800Z)
Latitude
-0.00004°
Longitude
0.30078°
Altitude
475.776 km
Speed
7.629 km/s
True Right ascension
03h 23m 23s
True Declination
0° 00' 00"
Sunlit
Object was in daylight at epoch
Visualization orbit readout
Latitude
Unknown
Longitude
Unknown
Altitude
Unknown
Speed
Unknown
Apparent Right ascension
Unknown
Apparent Declination
Unknown
Sunlit
N/A
Visualization observer readout
Local Sidereal Time
07:20:22
Azimuth
Unknown
Elevation
Unknown
Doppler factor
Unknown
Orbital elements
Apogee altitude
476.692 km
Perigee altitude
474.105 km
Semi-major axis
6,853.536 km
Eccentricity
0.00019
Inclination
53.1615°
RAAN
50.847°
Arg. of periapsis
78.2479°
True anomaly
281.85214°
Mean anomaly
281.8733°
Eccentric anomaly
281.86272°
Mean motion
3.82535 °/min
Orbital period
94.11 mins
BSTAR
0.00073695
Loading maneuver chart data...
Computing Atmospheric mass density...
Loading historical data...
Loading historical data...
Loading historical data...
Loading historical data...
Loading historical data...
Loading historical data...
Loading historical data...

Documentation

Showing up to 5 results
|